STARLINK-1716 (46672 NORAD) Tracking and Keplerian Element Data
This shows tracking and keplerian element data for the satellite.
Feedback or suggestion? Click here.
Element | Value |
Catalog | 46672 |
Name | STARLINK-1716 |
Epoch Orbit | 180 |
Epoch Day | 20.91667824 |
Epoch Year | 2021 |
RAAN | 13.2567 |
Inclination | 53.0605 |
Eccentricity | 0.0001722 |
Argument of Perigee | 69.9175 |
Mean Anonmoly | 265.0673 |
Mean Motion | 15.06389294 |
Decay Rate | 0.00036891 |
L1 | 1 46672U 20073C 21020.91667824 .00036891 00000-0 24833-2 0 9994 |
L2 | 2 46672 53.0605 13.2567 0001722 69.9175 265.0673 15.06389294 1804 |
Live tracking and technical data element details for STARLINK-1716 (NORAD 46672). STARLINK-1716 can be tracked NOW for your location showing map with azimuth and elevation plus other details from your city location.
Track the satellite on the map from your city or location and see movement details for azimuth, elevation, latitude, longitude, range, height, and movement on the map or in text.
IsCatalogInMostPopularTable: catalog: 46672, numindb: 30
Update: records affected: 1
GetName: 46672 STARLINK-1716
Hit Count: updated at: Fri, 22 Jan 2021 15:47:47 GMT